Location: Kalberh�ni
(46.4610°N, 7.2453°E)
Time: 14:51:45
(UTC+00:00)

Cosmos 1606 Rocket - Pass Details

Date: 25 October 2021
Orbit: 602 x 633 km, 82.5° (Epoch: 04 December)

Event Time Altitude Azimuth Distance (km) Brightness Sun altitude
Rises 17:35:05 0° 150° (SSE) 2,916 6.8 -12.3°
Reaches altitude 10° 17:37:47 10° 133° (SE) 2,014 5.8 -12.8°
Enters shadow 17:40:21 20° 99° (E) 1,488 4.9 -13.2°
Exits shadow 17:45:38 - 30° (NNE) 2,445 6.3 -14.2°
Sets 17:47:00 0° 23° (NNE) 2,930 6.8 -14.4°
